Temp
66 70 75 76 77 77 76 76 76 76 77 77 76 76 76 76 76 76 77 77 77 76 76 76 77 77 77 76 75 75 75 74 74 75 75 76 76 76 75 74 73 72 75
68 71 73 76 77 76 76 76 76 76 77 77 77 76 76 76 76 76 76 77 77 76 76 76 77 76 75 75 75 75 74 73 73 73 73 74 75 75 75 74 74 73 75
69 71 71 74 75 75 75 75 76 76 77 77 77 76 76 76 76 76 76 76 76 75 76 76 76 75 75 74 75 74 73 73 72 71 71 67 70 75 75 74 74 74 75
70 70 71 73 75 75 75 75 75 76 77 76 76 76 76 76 76 76 76 76 76 77 76 76 75 74 74 74 74 73 73 71 70 69 66 69 73 75 75 74 73 73 73
68 69 70 72 74 75 74 75 75 75 75 75 76 76 75 75 75 76 76 76 75 76 76 75 74 74 73 74 73 73 72 71 69 66 64 65 66 73 74 73 72 72 72
67 68 70 73 74 74 74 74 75 75 75 75 75 75 75 75 75 75 75 75 75 75 75 74 73 73 73 73 73 72 72 70 66 61 62 64 65 74 73 73 72 71 71
66 68 69 72 73 74 74 74 74 74 75 74 74 75 75 74 74 74 74 74 74 74 73 73 73 72 72 71 71 71 69 67 62 60 60 62 65 73 73 72 72 71 71
66 67 69 68 70 72 73 73 73 73 74 74 74 73 73 74 74 74 74 74 74 73 73 72 72 72 71 71 70 69 68 66 62 60 60 61 70 72 72 71 71 71 70
66 66 66 67 68 68 69 70 71 72 72 72 72 71 70 71 72 72 72 73 73 72 71 71 71 71 71 70 69 67 66 64 59 60 62 61 70 71 71 71 71 70 70
64 64 64 64 66 66 66 66 67 69 69 69 68 67 66 66 67 67 67 70 72 71 70 70 69 69 69 68 67 65 64 64 59 59 59 62 70 71 71 70 69 69 69
63 63 63 63 64 65 65 63 64 65 66 65 65 63 62 62 63 64 65 68 69 69 69 69 68 67 65 64 64 64 62 59 59 59 59 66 70 70 70 69 69 69 69
61 61 62 62 62 65 67 63 63 63 62 62 62 61 61 61 61 62 61 64 66 66 68 68 68 65 61 58 58 60 58 59 58 58 58 66 69 70 70 69 69 68 68
61 61 61 62 62 62 65 62 61 60 60 60 61 61 61 60 59 58 57 58 58 59 58 59 59 58 59 58 58 58 58 58 56 57 60 64 68 70 71 70 70 69 69
60 61 61 62 62 62 62 61 61 60 60 59 60 61 59 58 57 57 57 57 57 57 57 56 57 57 58 58 58 58 58 58 57 57 57 59 65 69 71 71 71 71 70
61 62 62 61 62 62 61 61 61 60 60 60 60 61 59 58 57 58 57 57 57 57 57 56 56 56 57 57 57 57 57 57 58 57 56 57 61 66 69 71 72 72 72
64 63 63 63 63 62 61 61 61 61 62 61 61 60 60 59 58 58 58 57 57 57 56 56 56 56 55 55 56 57 57 56 57 57 57 57 60 63 66 69 70 71 72
65 65 64 64 64 62 62 62 62 62 62 61 61 62 61 60 59 59 57 57 57 57 57 56 55 55 54 55 55 55 55 56 55 56 56 56 57 59 61 65 68 69 70
66 64 65 67 64 63 62 62 62 62 61 61 62 62 64 62 60 58 57 57 57 57 56 55 55 54 53 53 53 54 55 55 55 55 55 55 55 57 59 62 64 66 68
66 65 64 65 63 63 62 62 62 63 64 66 66 66 66 65 64 59 58 58 57 57 56 56 55 53 53 56 57 57 56 54 54 55 53 54 54 55 55 58 60 60 62
66 66 66 65 65 63 63 62 63 66 65 65 65 65 66 66 65 63 59 59 60 59 59 58 57 57 57 57 57 57 54 53 52 51 52 54 53 53 53 53 53 55 57
61 64 65 64 63 63 61 61 64 64 64 64 64 65 65 66 66 64 62 62 60 57 60 59 58 57 55 56 52 55 52 53 51 51 52 51 52 53 52 52 51 52 53
60 62 64 64 64 64 65 64 61 62 64 65 65 65 65 64 65 64 63 62 61 59 58 57 57 55 55 54 54 51 48 51 51 55 53 53 53 51 52 53 52 52 51
55 58 61 63 64 65 64 62 62 63 63 63 63 63 64 64 64 64 63 63 61 60 58 57 57 56 54 55 54 53 50 48 50 51 52 50 51 49 50 50 51 51 51
54 55 56 59 62 63 63 63 64 64 62 63 64 64 64 63 62 62 62 61 60 60 59 57 57 57 55 53 53 52 51 51 47 47 51 53 49 51 49 50 49 50 50
51 51 53 55 58 62 63 65 65 63 64 64 63 59 57 56 57 58 59 59 58 58 57 56 55 55 55 54 52 51 50 49 46 46 45 44 48 47 48 48 48 50 49
49 50 50 52 54 59 62 64 64 64 60 60 59 56 53 53 53 53 54 53 53 52 51 50 49 48 47 48 47 46 46 46 46 46 45 44 43 44 47 46 46 46 46
MSLP
1020.10 1019.80 1019.75 1019.83 1020.03 1020.21 1020.30 1020.46 1020.48 1020.44 1020.54 1020.72 1020.79 1020.72 1020.70 1020.69 1020.76 1020.65 1020.68 1020.64 1020.64 1020.74 1020.85 1020.90 1020.80 1020.75 1020.75 1020.81 1020.87 1020.85 1020.86 1020.79 1020.75 1020.72 1020.53 1020.49 1020.49 1020.61 1020.71 1020.75 1020.68 1020.61 1020.51
1019.65 1019.84 1020.04 1020.14 1020.29 1020.49 1020.60 1020.75 1020.87 1020.95 1020.98 1021.08 1021.18 1021.12 1021.06 1021.04 1021.13 1021.10 1021.11 1021.07 1021.10 1021.29 1021.41 1021.33 1021.24 1021.37 1021.37 1021.46 1021.48 1021.42 1021.34 1021.44 1021.44 1021.38 1021.31 1021.20 1021.09 1021.15 1021.24 1021.25 1021.14 1021.08 1021.04
1019.89 1020.02 1020.34 1020.48 1020.64 1020.81 1020.97 1021.05 1021.10 1021.20 1021.26 1021.30 1021.32 1021.38 1021.36 1021.40 1021.47 1021.57 1021.60 1021.60 1021.67 1021.75 1021.72 1021.71 1021.81 1021.98 1021.95 1021.87 1021.81 1021.81 1021.91 1022.02 1022.02 1021.95 1021.88 1021.83 1021.69 1021.61 1021.70 1021.71 1021.59 1021.55 1021.49
1019.95 1020.13 1020.33 1020.64 1020.81 1021.05 1021.23 1021.31 1021.31 1021.36 1021.34 1021.47 1021.60 1021.69 1021.67 1021.78 1021.79 1021.98 1022.04 1022.08 1022.02 1022.09 1022.14 1022.16 1022.34 1022.39 1022.34 1022.29 1022.24 1022.35 1022.44 1022.46 1022.44 1022.38 1022.33 1022.16 1022.11 1022.10 1022.13 1022.16 1022.12 1022.10 1022.02
1020.22 1020.32 1020.42 1020.57 1020.89 1021.22 1021.53 1021.59 1021.56 1021.60 1021.67 1021.84 1021.85 1022.02 1022.24 1022.31 1022.31 1022.33 1022.44 1022.50 1022.59 1022.55 1022.66 1022.74 1022.86 1022.88 1022.85 1022.78 1022.83 1022.88 1022.93 1022.97 1023.02 1023.03 1023.06 1023.00 1022.85 1022.62 1022.69 1022.79 1022.73 1022.66 1022.53
1020.62 1020.89 1021.02 1020.87 1021.05 1021.34 1021.69 1021.82 1021.90 1021.99 1022.03 1022.20 1022.37 1022.43 1022.61 1022.70 1022.75 1022.81 1022.92 1022.98 1022.99 1023.00 1023.16 1023.27 1023.32 1023.32 1023.31 1023.24 1023.27 1023.30 1023.31 1023.33 1023.46 1023.58 1023.55 1023.41 1023.24 1022.93 1022.94 1023.00 1022.97 1022.95 1022.95
1020.85 1021.19 1021.32 1021.36 1021.40 1021.49 1021.80 1022.04 1022.18 1022.24 1022.39 1022.59 1022.73 1022.77 1022.94 1023.02 1023.06 1023.10 1023.11 1023.34 1023.46 1023.55 1023.74 1023.76 1023.81 1023.76 1023.76 1023.75 1023.76 1023.81 1023.86 1023.92 1024.00 1024.03 1024.00 1023.88 1023.60 1023.33 1023.32 1023.33 1023.31 1023.28 1023.23
1020.91 1021.47 1021.43 1021.53 1021.80 1021.86 1022.03 1022.30 1022.42 1022.56 1022.77 1023.00 1023.11 1023.20 1023.30 1023.30 1023.39 1023.53 1023.61 1023.73 1023.80 1023.96 1024.06 1024.09 1024.12 1024.15 1024.14 1024.17 1024.19 1024.17 1024.21 1024.28 1024.37 1024.39 1024.35 1024.17 1023.84 1023.70 1023.71 1023.70 1023.65 1023.66 1023.62
1021.17 1021.67 1021.88 1021.67 1022.03 1022.34 1022.52 1022.61 1022.72 1022.89 1023.15 1023.38 1023.51 1023.63 1023.68 1023.63 1023.77 1023.88 1023.95 1024.00 1024.19 1024.33 1024.38 1024.42 1024.44 1024.47 1024.51 1024.58 1024.54 1024.51 1024.57 1024.68 1024.77 1024.74 1024.60 1024.51 1024.18 1024.04 1024.02 1024.05 1024.03 1024.00 1024.00
1021.65 1022.09 1022.40 1022.29 1022.19 1022.77 1022.94 1023.02 1023.17 1023.32 1023.45 1023.65 1023.80 1023.95 1024.06 1024.13 1024.25 1024.35 1024.39 1024.37 1024.53 1024.63 1024.71 1024.77 1024.80 1024.81 1024.84 1024.92 1024.94 1024.91 1024.89 1024.92 1025.01 1025.00 1024.90 1024.68 1024.41 1024.29 1024.30 1024.36 1024.36 1024.31 1024.26
1022.19 1022.27 1022.33 1022.45 1022.27 1022.48 1023.01 1023.25 1023.41 1023.66 1023.88 1024.03 1024.12 1024.25 1024.45 1024.61 1024.68 1024.72 1024.74 1024.76 1024.90 1025.03 1025.11 1025.13 1025.13 1025.19 1025.27 1025.28 1025.27 1025.22 1025.17 1025.25 1025.27 1025.27 1025.19 1024.89 1024.70 1024.55 1024.50 1024.48 1024.46 1024.40 1024.35
1022.23 1022.41 1022.31 1022.61 1022.83 1022.64 1023.03 1023.31 1023.65 1023.96 1024.20 1024.40 1024.52 1024.59 1024.75 1024.87 1024.97 1025.06 1025.12 1025.11 1025.20 1025.28 1025.33 1025.36 1025.42 1025.48 1025.51 1025.57 1025.54 1025.51 1025.57 1025.52 1025.51 1025.47 1025.33 1025.09 1024.88 1024.72 1024.66 1024.68 1024.65 1024.54 1024.44
1021.87 1022.38 1022.57 1022.58 1022.88 1023.04 1023.09 1023.79 1023.98 1024.18 1024.34 1024.47 1024.63 1024.76 1024.89 1025.07 1025.20 1025.34 1025.42 1025.47 1025.51 1025.59 1025.75 1025.79 1025.86 1025.86 1025.82 1025.80 1025.78 1025.72 1025.63 1025.58 1025.60 1025.48 1025.29 1025.08 1024.89 1024.66 1024.51 1024.45 1024.43 1024.39 1024.31
1021.93 1022.16 1022.48 1022.59 1023.03 1023.25 1023.40 1023.69 1024.12 1024.28 1024.47 1024.66 1024.69 1024.78 1025.01 1025.33 1025.59 1025.71 1025.76 1025.68 1025.73 1025.81 1025.89 1025.96 1026.01 1025.99 1025.98 1025.94 1025.91 1025.82 1025.70 1025.62 1025.53 1025.45 1025.32 1025.15 1024.95 1024.71 1024.44 1024.20 1024.08 1024.00 1024.00
1021.71 1022.03 1022.16 1022.54 1022.90 1023.31 1023.55 1023.72 1023.97 1024.16 1024.38 1024.54 1024.68 1024.87 1025.15 1025.41 1025.51 1025.63 1025.75 1025.83 1025.88 1025.95 1026.05 1026.10 1026.12 1026.14 1026.10 1026.00 1025.87 1025.80 1025.69 1025.57 1025.51 1025.45 1025.30 1025.08 1024.92 1024.68 1024.45 1024.21 1024.00 1023.75 1023.50
1021.13 1021.74 1021.89 1022.26 1022.59 1022.93 1023.27 1023.41 1023.57 1023.94 1024.10 1024.24 1024.50 1024.71 1024.88 1025.11 1025.43 1025.63 1025.72 1025.84 1025.95 1026.01 1026.07 1026.08 1026.02 1026.03 1026.04 1025.97 1025.87 1025.73 1025.56 1025.49 1025.43 1025.33 1025.11 1024.86 1024.70 1024.62 1024.49 1024.26 1023.99 1023.68 1023.36
1020.57 1021.19 1021.54 1021.75 1022.24 1022.60 1022.69 1023.08 1023.37 1023.62 1023.96 1024.31 1024.47 1024.69 1025.01 1025.15 1025.34 1025.48 1025.68 1025.71 1025.71 1025.91 1026.03 1026.11 1026.07 1026.09 1026.08 1026.00 1026.04 1025.85 1025.64 1025.49 1025.30 1025.14 1024.92 1024.79 1024.69 1024.56 1024.36 1024.13 1023.86 1023.55 1023.28
1020.45 1020.70 1021.14 1021.14 1021.67 1022.18 1022.61 1022.89 1023.26 1023.63 1023.88 1024.13 1024.42 1024.58 1024.67 1024.94 1025.22 1025.60 1025.83 1025.83 1025.74 1025.84 1025.99 1026.18 1026.29 1026.39 1026.39 1026.29 1026.09 1025.81 1025.56 1025.35 1025.04 1024.84 1024.58 1024.47 1024.35 1024.18 1024.01 1023.91 1023.79 1023.53 1023.17
1019.97 1020.32 1020.85 1021.18 1021.43 1021.84 1022.34 1022.73 1022.99 1023.31 1023.66 1023.71 1023.91 1024.11 1024.35 1024.51 1024.85 1025.29 1025.56 1025.68 1025.75 1025.79 1025.84 1025.96 1026.24 1026.43 1026.28 1026.22 1025.99 1025.51 1025.12 1025.03 1024.80 1024.56 1024.63 1024.54 1024.31 1024.13 1023.98 1023.73 1023.55 1023.46 1023.29
1019.50 1019.84 1020.32 1020.90 1021.29 1021.63 1022.08 1022.58 1022.91 1023.04 1023.21 1023.41 1023.77 1023.96 1024.23 1024.40 1024.55 1024.82 1025.21 1025.45 1025.60 1025.79 1025.83 1025.90 1025.98 1025.90 1026.09 1026.16 1025.92 1025.61 1025.20 1024.70 1024.47 1024.68 1024.59 1024.28 1024.23 1024.20 1024.15 1023.93 1023.62 1023.31 1023.08
1019.33 1019.57 1019.86 1020.39 1020.83 1021.49 1022.09 1022.60 1022.82 1022.85 1023.22 1023.45 1023.60 1023.73 1023.86 1024.15 1024.37 1024.59 1024.85 1025.13 1025.40 1025.74 1025.73 1025.74 1025.97 1026.04 1026.07 1026.05 1026.22 1025.61 1025.12 1024.74 1024.77 1024.59 1024.44 1024.37 1024.18 1024.03 1023.95 1023.67 1023.54 1023.31 1023.03
1018.82 1019.04 1019.49 1019.75 1020.25 1020.66 1021.27 1021.78 1022.10 1022.19 1022.59 1022.79 1023.09 1023.41 1023.57 1023.76 1023.95 1024.10 1024.33 1024.55 1024.77 1025.11 1025.49 1025.78 1025.95 1026.08 1026.20 1026.18 1026.31 1026.42 1025.96 1025.30 1024.94 1024.67 1024.46 1024.50 1024.39 1024.35 1024.15 1023.92 1023.69 1023.32 1023.05
1018.72 1018.77 1019.04 1019.36 1019.84 1020.22 1020.62 1021.28 1021.94 1022.14 1022.37 1022.70 1023.01 1023.26 1023.41 1023.43 1023.49 1023.77 1024.10 1024.33 1024.60 1024.76 1025.03 1025.35 1025.65 1025.95 1026.17 1026.13 1026.32 1026.50 1026.28 1026.18 1025.83 1024.91 1024.63 1024.59 1024.64 1024.55 1024.28 1023.98 1023.52 1023.24 1022.93
1018.92 1018.82 1018.97 1019.21 1019.67 1020.13 1020.46 1020.95 1021.39 1021.87 1022.22 1022.36 1022.58 1022.78 1022.89 1023.36 1023.67 1023.90 1024.01 1024.19 1024.44 1024.70 1024.96 1025.41 1025.42 1025.75 1026.06 1026.38 1026.42 1026.58 1026.60 1026.54 1026.38 1025.58 1025.12 1024.87 1024.91 1024.69 1024.33 1023.82 1023.45 1023.11 1022.73
1019.33 1019.23 1019.19 1019.27 1019.53 1019.80 1020.19 1020.50 1020.91 1021.38 1021.70 1021.87 1022.59 1023.30 1023.86 1024.21 1024.36 1024.39 1024.46 1024.58 1024.85 1025.05 1025.27 1025.43 1025.77 1026.04 1026.46 1026.52 1026.80 1027.03 1027.16 1027.00 1026.97 1026.79 1025.44 1025.19 1024.99 1024.98 1024.54 1024.11 1023.70 1023.15 1022.79
1019.26 1019.59 1019.65 1019.66 1019.62 1019.61 1019.93 1020.10 1020.44 1020.81 1021.57 1022.02 1022.85 1023.72 1024.33 1024.66 1024.93 1025.07 1025.29 1025.42 1025.58 1025.84 1025.91 1026.20 1026.42 1026.70 1026.87 1026.93 1027.23 1027.49 1027.63 1027.66 1027.52 1027.43 1026.76 1025.89 1025.33 1024.72 1024.53 1024.13 1023.69 1023.37 1023.52
Wind_Speed
3 4 9 12 14 14 15 14 14 13 14 15 15 15 15 16 16 16 16 16 18 18 18 17 18 19 20 20 20 20 20 20 20 20 19 19 19 19 19 18 15 11 17
7 6 8 12 14 16 16 14 14 13 13 16 15 15 15 16 16 18 17 15 15 17 16 16 19 21 20 18 18 19 20 19 18 17 15 15 17 17 18 17 16 13 16
6 7 6 11 13 15 15 13 13 13 14 15 16 17 17 16 17 18 17 14 16 16 16 17 19 19 17 17 18 19 18 17 16 15 13 6 9 17 16 16 16 17 17
8 7 7 11 13 15 14 12 13 13 14 14 17 17 16 16 17 17 15 15 16 17 17 17 18 18 17 15 17 18 18 17 16 16 8 8 8 15 15 15 15 15 15
7 6 7 13 15 15 14 13 12 14 13 14 17 17 16 15 16 17 15 15 15 16 15 16 17 17 17 15 16 16 16 17 16 11 8 6 6 11 14 14 13 15 15
7 5 6 13 15 16 13 14 13 13 13 14 14 17 15 15 16 16 15 13 14 14 13 14 16 16 17 16 16 15 14 14 12 7 6 7 6 12 12 12 13 13 13
7 5 5 10 14 15 14 14 13 13 14 13 13 14 14 15 13 13 13 16 14 14 13 12 14 15 16 16 14 13 12 12 6 6 6 6 5 9 11 11 12 11 11
9 5 5 8 9 12 13 13 12 12 13 12 12 12 12 12 13 13 14 14 13 12 12 12 12 13 14 14 13 10 10 9 6 6 5 5 9 10 10 10 9 9 9
7 6 3 6 7 9 10 10 11 10 11 10 10 10 10 10 10 11 10 12 12 11 11 10 10 11 12 12 12 10 8 8 6 4 4 3 8 8 8 8 8 8 7
6 5 4 4 7 6 6 8 9 9 10 9 9 9 9 10 10 8 7 10 11 10 8 8 9 10 11 11 11 9 6 7 5 4 3 3 7 8 7 7 6 6 5
5 6 6 5 6 8 6 6 8 8 7 7 7 8 6 4 5 6 6 9 10 8 7 7 8 9 10 10 9 8 6 2 3 2 2 4 5 5 5 4 4 4 3
8 5 6 5 4 7 5 5 5 5 4 4 4 5 4 4 4 5 6 7 7 7 6 5 5 7 7 4 4 6 3 3 1 2 2 6 5 4 4 4 5 5 5
9 6 5 6 5 4 6 3 2 2 3 3 5 4 3 3 3 3 2 2 2 4 3 4 3 3 4 3 3 3 3 2 2 2 4 6 7 7 7 6 6 7 8
8 8 7 6 6 5 3 4 3 3 3 3 3 4 4 2 2 1 1 1 1 1 1 2 1 3 4 4 4 4 4 3 2 2 3 7 9 10 11 10 10 11 11
9 8 10 7 7 5 5 3 3 4 4 4 4 4 3 3 3 3 2 1 1 0 1 1 2 3 3 4 3 3 5 5 5 3 3 8 9 12 14 15 15 15 15
11 10 10 10 9 8 6 7 6 4 4 4 4 4 5 4 4 3 3 3 3 2 1 1 2 1 2 3 5 5 5 5 5 5 4 4 9 12 14 16 17 18 19
11 11 12 12 9 9 9 7 5 5 4 4 4 5 4 4 4 4 3 3 3 1 1 1 2 1 3 3 5 5 5 6 5 6 5 4 5 8 12 16 18 20 20
10 11 10 10 11 10 7 6 4 4 4 4 4 4 6 6 4 3 2 3 2 2 2 2 2 3 3 3 4 5 4 5 6 6 5 4 4 4 7 13 17 19 21
12 12 11 9 11 11 7 5 5 6 5 5 3 4 5 5 6 5 4 4 3 2 2 1 1 2 2 3 4 5 4 5 6 4 6 6 6 5 4 8 11 13 17
12 12 13 10 11 8 6 4 3 5 4 4 4 4 5 4 6 5 3 3 3 3 2 2 3 2 2 3 4 5 5 5 4 3 5 4 5 5 5 5 5 6 13
8 11 13 12 10 8 4 5 6 6 4 3 3 6 6 5 5 5 3 3 3 4 3 3 1 2 2 2 3 3 4 5 4 3 3 4 5 4 5 4 4 4 5
13 14 13 14 12 11 9 6 3 4 3 3 4 5 6 6 6 5 6 5 5 3 4 3 2 1 1 1 1 1 5 5 4 6 4 4 6 4 6 6 7 7 5
9 12 12 12 12 12 11 5 2 2 2 3 3 3 4 6 6 5 3 2 3 3 3 3 2 3 1 1 1 1 2 2 5 3 4 2 4 3 4 6 7 7 7
6 4 6 7 9 9 10 9 9 7 6 4 4 4 2 2 3 4 3 4 3 2 3 1 2 1 2 1 1 1 1 2 2 5 2 8 5 8 6 6 5 6 7
4 5 5 5 6 9 12 12 10 8 4 4 3 8 7 6 7 6 6 6 5 4 5 5 4 4 2 2 2 2 2 2 1 3 8 4 3 4 5 4 6 7 7
3 3 5 6 7 7 12 13 13 12 7 6 7 7 5 4 4 6 7 6 6 5 5 5 5 6 4 5 4 4 3 3 4 4 8 10 9 4 6 5 5 4 5
Wind_Direction
184 168 135 124 110 107 99 96 96 91 91 90 85 84 85 81 77 74 75 79 78 72 73 72 74 74 74 74 73 72 70 66 63 60 61 66 68 68 65 61 53 54 61
134 115 132 118 116 112 104 103 100 98 99 97 94 89 87 89 83 78 72 69 77 75 79 82 79 73 70 76 76 74 70 66 62 59 59 59 70 62 60 56 53 51 49
117 115 101 120 116 113 112 112 112 110 110 107 99 91 89 89 86 82 78 75 79 83 86 87 81 72 68 74 77 73 69 63 59 56 54 46 58 65 63 60 59 58 54
121 116 116 120 120 117 112 115 108 102 99 93 106 94 91 92 88 89 91 85 91 89 89 89 78 69 67 83 79 78 74 67 57 47 35 38 59 66 61 63 61 59 56
114 121 133 130 128 121 117 115 108 107 103 89 109 101 96 93 94 94 89 92 85 88 93 86 77 70 66 74 75 79 79 72 62 50 37 34 29 69 69 66 59 58 53
96 96 127 131 130 124 123 117 110 107 103 95 92 104 96 100 101 100 100 93 91 93 91 85 79 71 65 73 74 71 68 71 66 50 41 28 26 53 60 60 63 61 54
114 111 119 134 134 128 123 119 114 107 104 101 102 105 108 111 103 92 98 99 91 88 85 83 79 72 68 72 69 70 66 60 56 48 39 27 12 45 45 47 49 48 55
121 118 122 117 129 129 125 119 113 112 113 117 115 101 96 114 111 101 93 92 93 92 82 78 74 73 69 68 61 68 76 67 56 53 42 28 32 46 44 45 45 51 48
113 124 123 119 121 112 114 118 117 118 121 117 109 99 83 82 105 97 95 101 99 91 83 74 66 63 66 63 52 59 83 76 60 43 44 24 27 34 41 39 40 39 41
111 114 101 102 111 105 118 116 116 119 113 114 111 101 87 77 77 81 84 90 99 95 85 72 59 51 48 52 51 48 73 64 51 31 24 13 32 40 42 38 29 27 30
129 145 143 140 140 136 137 132 122 125 127 123 108 99 85 86 81 79 91 95 98 95 81 68 55 39 27 21 35 43 42 41 42 14 349 348 24 26 25 18 12 2 355
165 179 163 148 160 138 136 137 129 125 127 125 125 114 103 102 101 93 79 78 89 85 63 53 52 36 21 14 3 23 27 15 353 323 318 315 339 355 353 346 338 324 313
172 168 186 155 161 145 138 126 129 138 142 144 144 136 128 101 91 90 88 68 76 62 37 33 24 20 3 8 3 360 5 9 342 316 303 298 303 310 314 307 301 300 300
173 177 175 167 163 167 132 142 159 155 163 161 168 153 140 129 114 115 105 135 97 46 47 36 0 333 349 348 348 338 337 333 311 308 302 297 289 289 297 299 297 295 291
173 185 180 166 170 169 161 160 166 180 174 174 169 168 146 155 167 161 192 194 202 178 248 307 321 333 338 337 331 331 323 320 320 314 301 294 292 283 286 291 295 294 296
175 188 178 181 180 169 178 177 184 181 192 180 177 178 177 172 175 189 194 216 239 218 279 257 255 290 300 317 318 320 306 308 308 302 285 281 278 283 288 291 291 292 293
184 184 184 181 183 183 184 188 181 186 176 184 187 182 189 182 185 182 199 220 222 218 250 290 290 312 326 324 310 307 304 298 293 292 287 284 293 291 286 290 291 290 291
187 180 188 184 184 185 186 177 172 181 173 184 189 185 187 184 187 191 222 241 224 201 208 251 297 322 299 300 295 287 285 290 287 283 280 287 283 281 285 288 296 301 298
191 186 186 180 180 185 179 173 174 173 188 196 179 181 181 184 178 186 207 235 219 214 216 218 258 227 273 283 287 282 277 275 277 290 302 306 293 291 301 299 302 300 302
195 191 189 186 184 177 170 155 164 176 175 157 172 172 181 198 184 196 208 221 206 230 257 232 242 241 264 288 293 299 290 274 269 304 295 296 306 315 307 307 308 302 299
198 192 190 183 183 168 161 173 194 191 170 173 181 185 185 203 203 205 204 217 209 224 237 244 288 291 314 355 326 320 298 296 345 327 292 309 322 323 304 307 301 292 302
192 195 193 194 182 184 184 188 172 160 165 172 185 199 202 201 208 198 200 201 202 210 241 242 200 281 276 257 302 237 329 332 336 331 337 319 331 341 329 332 321 308 301
187 186 190 191 187 187 179 143 99 88 86 151 182 196 219 209 209 204 246 227 206 193 222 209 192 193 249 265 206 266 327 260 339 327 285 345 329 333 314 315 309 306 304
200 161 174 183 182 186 168 171 176 181 182 187 185 199 160 40 72 87 98 99 98 115 104 98 116 158 170 300 30 72 262 202 314 317 333 323 342 329 328 316 306 307 309
181 190 201 188 187 179 180 185 184 181 196 140 119 88 80 63 58 60 68 73 71 70 68 69 70 61 39 71 65 347 320 331 296 279 303 311 303 288 287 289 302 303 307
198 209 201 204 207 187 186 188 189 180 150 131 123 115 102 86 67 56 60 64 63 63 70 71 71 63 55 58 46 34 34 346 334 325 310 313 303 293 298 286 288 314 357